Kosmos-1656

operational
NORAD ID: 15755 Int'l Des: 1985-042 Owner: TSN108 Country: SU
LEOCIRCULAR

Kosmos-1656について

説明を読み込み中...

リアルタイム位置

3D地球を読み込み中...

次回通過

高度履歴

Altitude vs Time

uPlot chart will show altitude changes over time

軌道要素

1 15755U 85042A 26062.59020227 .00000154 00000-0 92432-4 0 9999
2 15755 71.1117 138.8247 0034005 151.8138 208.4839 14.20989287112160
Epoch: Mar 3, 2026 • Age: 41 hours

現在のステータス

高度 836.7 km
速度 7.43 km/s
衛星直下点 30.18°N, 85.16°E
打ち上げ日 May 30, 1985
運用期間 40.7 years
タイプ other

技術仕様

分類 Payload
質量 3250.00 kg
乾燥質量 3250.00 kg
総質量 3250.00 kg
長さ 4.50 m
直径 1.40 m
スパン 22.70 m
形状 Cyl + 2 Pan + Ant
製造者 YUZH
バスタイプ Tselina-2
フェーズステータス In Orbit
所有者/国 TSN108/SU

大規模コンステレーション

Loading constellations...